Overview Statistics Trail Chart Weather Telemetry Raw packets
 

This is the latest recevied weather packets stored in our database for station/object EA4URC-10. If no packets are shown the sender has not sent any weather packets the latest 10 day(s).

<< 15 16 17 18 19 20 21 >>
Time Temp. Humidity Pressure Rain* Wind** Luminosity Snow
1787888378 9.44° C 100% 1035.2 hPa - - - -
1787886577 10° C 100% 1035 hPa - - - -
1787884783 10° C 100% 1035.2 hPa - - - -
1787882982 10.56° C 100% 1035.1 hPa - - - -
1787881189 10.56° C 100% 1035 hPa - - - -
1787879381 11.11° C 100% 1035.1 hPa - - - -
1787877580 11.11° C 100% 1035 hPa - - - -
1787875780 11.67° C 100% 1035.3 hPa - - - -
1787873979 12.22° C 100% 1035.3 hPa - - - -
1787872179 12.22° C 95% 1035.1 hPa - - - -
1787870378 12.78° C 89% 1035 hPa - - - -
1787868578 13.33° C 80% 1034.9 hPa - - - -
1787866777 13.89° C 75% 1034.6 hPa - - - -
1787864977 13.89° C 73% 1034.3 hPa - - - -
1787863182 13.33° C 69% 1034.3 hPa - - - -
1787861381 13.89° C 66% 1033.9 hPa - - - -
1787859581 14.44° C 65% 1033.4 hPa - - - -
1787857780 14.44° C 63% 1033.1 hPa - - - -
1787855980 15° C 58% 1032.9 hPa - - - -
1787854179 16.11° C 52% 1032.6 hPa - - - -
1787852379 16.67° C 50% 1032.7 hPa - - - -
1787850578 17.78° C 45% 1032.6 hPa - - - -
1787848778 17.78° C 42% 1032.5 hPa - - - -
1787846977 18.33° C 39% 1032.2 hPa - - - -
1787845176 18.89° C 38% 1032.2 hPa - - - -

* Rain since midnight (hover to see other rain measurements)
** Current wind speed in m/s (hover to see current wind gust speed)